Theta_e
335 330 331 333 337 342 338 336 336 337 336 336 335 334 334 334 334 334 335 336 335 335 334 333 336 338 338 337 338 337 332 330 329 326 323 322 321 331 333 334 337 337 335
333 330 332 333 341 341 337 335 336 336 336 336 335 333 333 334 333 335 335 335 335 335 333 333 336 338 339 339 339 338 334 335 333 334 332 329 325 332 335 338 338 337 336
337 331 333 335 342 338 337 334 335 336 336 335 335 334 334 334 334 335 336 337 337 335 333 333 335 337 338 339 339 338 337 337 337 338 337 334 331 330 334 335 337 336 334
338 337 334 336 341 338 336 335 335 336 335 333 335 334 335 335 335 334 335 336 335 333 332 332 331 333 335 337 338 338 338 338 338 339 338 337 334 332 331 330 333 333 330
339 341 340 339 339 338 337 335 335 335 335 335 334 335 335 335 334 334 332 332 334 332 329 329 328 326 326 326 328 335 337 336 336 337 336 336 332 333 333 334 329 331 334
340 341 341 341 338 337 337 336 335 335 335 335 335 334 335 334 332 331 330 332 334 333 332 332 332 332 331 327 325 322 324 330 333 332 329 330 324 328 332 332 334 335 333
342 341 340 340 339 337 336 336 335 335 335 335 335 334 335 333 332 332 328 328 332 332 332 332 332 329 330 327 326 323 327 335 334 334 335 326 316 321 328 330 333 336 331
342 341 340 340 338 336 336 335 335 335 335 336 335 335 334 334 334 333 331 331 332 331 331 332 331 330 331 326 319 322 326 333 334 334 333 333 332 317 320 328 334 335 330
342 343 339 338 337 337 336 335 335 335 335 336 335 336 335 335 335 333 332 332 331 330 330 330 331 331 331 331 331 329 324 328 332 333 334 329 329 330 323 324 329 331 332
341 343 338 338 337 337 336 336 335 335 336 334 334 334 334 333 333 332 332 332 332 331 330 330 328 328 329 330 330 331 333 331 326 330 327 326 325 325 327 320 325 330 333
342 342 341 337 336 336 336 336 335 335 335 334 334 334 333 332 331 330 331 331 330 330 330 329 329 329 329 330 329 330 332 332 333 333 332 331 328 327 325 327 324 324 326
339 339 340 338 335 336 335 336 336 336 334 333 332 332 331 331 331 329 330 330 329 328 328 328 329 328 329 330 330 329 329 330 330 329 330 328 329 328 326 328 325 328 329
339 338 338 336 337 335 335 335 335 334 332 332 331 330 329 329 330 330 330 330 329 329 329 329 329 330 330 329 329 329 328 328 328 328 329 328 329 328 328 325 327 329 326
337 336 336 337 337 334 334 335 334 333 333 332 331 330 328 328 327 328 328 328 327 327 328 329 329 329 329 329 329 330 329 328 327 326 327 328 329 330 329 329 327 326 328
336 337 335 335 335 334 334 333 333 333 332 331 330 328 327 327 327 326 326 326 326 326 327 328 328 328 328 329 329 329 329 328 328 328 328 328 329 330 331 330 329 329 327
333 335 336 335 335 334 333 333 332 331 332 330 328 328 325 324 325 324 324 324 325 324 326 327 327 327 326 327 327 327 328 328 327 327 328 328 328 329 330 331 331 331 330
332 332 334 332 334 333 332 333 331 329 330 328 326 326 324 322 321 321 321 321 318 317 318 323 325 325 325 324 324 324 324 325 325 326 324 327 328 327 330 330 330 331 331
328 332 333 328 332 332 331 331 330 329 329 327 326 325 323 322 321 320 319 320 314 310 311 314 319 321 322 322 322 321 321 321 321 321 323 325 325 326 327 325 329 328 328
327 329 330 332 330 329 331 329 329 329 327 327 325 323 321 319 318 318 318 317 316 309 307 309 313 316 317 318 318 318 317 318 318 318 319 321 321 323 323 326 326 325 324
326 329 328 327 328 328 329 329 328 327 326 326 323 322 319 318 317 316 316 316 316 310 306 305 307 312 315 316 317 316 315 315 315 316 316 316 318 318 320 322 322 323 323
323 326 328 328 327 326 326 327 323 324 323 323 321 320 318 316 315 314 314 314 314 310 305 304 303 306 310 311 311 310 310 309 309 310 310 311 313 316 317 317 319 320 321
321 324 326 327 326 325 324 323 322 322 320 320 318 318 317 313 314 312 313 313 311 307 303 302 299 301 302 305 305 302 299 299 299 300 302 302 304 305 308 313 315 315 316
318 320 323 325 325 324 323 322 321 321 320 318 316 318 313 312 312 311 311 312 311 308 302 300 299 298 298 299 298 298 297 298 296 295 295 295 295 295 296 297 300 305 309
316 318 320 322 323 323 321 321 321 318 319 317 315 314 312 311 308 306 308 309 310 309 305 300 297 296 296 296 296 296 297 299 297 296 294 294 294 294 294 294 294 294 294
314 316 318 319 320 320 320 319 316 316 316 313 312 311 308 307 303 303 304 304 306 307 305 299 295 296 295 295 294 294 294 295 296 297 295 294 293 293 293 293 293 293 293
311 313 316 317 317 317 318 317 315 316 313 314 313 308 308 308 304 301 302 300 299 298 298 298 296 294 294 294 294 293 293 294 294 294 295 294 293 293 293 292 292 292 292
Wind_Speed
17 23 21 22 22 19 18 18 19 17 15 14 13 12 13 15 17 16 15 16 15 16 17 17 18 18 19 19 19 20 20 21 21 22 22 20 20 21 20 18 17 20 19
20 24 24 25 21 19 18 19 18 16 15 14 13 13 14 14 15 15 16 16 16 19 18 18 18 19 20 20 20 20 20 21 21 21 21 21 19 19 19 17 18 19 18
21 25 25 26 21 19 18 18 17 17 16 14 13 14 15 15 16 17 16 17 21 20 20 19 17 18 19 20 20 20 20 19 19 20 18 18 18 18 17 15 16 15 15
21 22 25 25 22 20 18 18 17 17 15 14 14 14 15 17 18 17 16 15 17 20 22 19 18 18 18 19 19 19 19 20 21 19 17 14 15 15 15 13 12 12 12
19 20 22 23 22 20 19 18 18 16 16 16 15 16 18 20 20 17 11 11 14 19 19 18 19 15 15 16 17 16 16 15 15 15 14 10 13 14 13 13 13 13 14
21 24 22 22 22 20 19 19 18 17 17 16 17 19 20 21 19 15 13 18 20 21 20 19 17 15 12 14 16 17 16 15 12 13 11 10 12 13 11 11 12 14 15
21 22 25 23 21 20 19 19 19 18 17 18 18 18 19 20 16 11 12 15 19 20 21 20 17 16 13 12 14 17 18 20 9 17 9 12 13 12 11 11 12 14 13
23 23 26 23 20 20 19 19 19 18 19 20 21 19 19 20 15 13 16 18 19 19 18 18 19 18 17 15 15 15 17 19 12 13 13 15 14 13 11 11 12 13 12
23 24 24 24 21 19 20 20 21 21 22 24 25 24 23 21 18 19 17 17 16 16 16 18 17 18 16 15 16 15 15 18 17 16 14 11 12 13 12 11 10 11 12
26 24 26 25 23 21 22 23 24 25 26 25 25 24 21 19 20 22 22 19 16 15 14 14 15 14 16 15 15 13 11 12 17 17 13 13 11 11 11 11 9 9 10
28 27 27 26 26 27 26 26 23 22 22 22 22 18 18 16 16 18 19 19 17 16 13 10 14 14 9 11 14 15 13 15 15 18 16 13 10 10 10 9 10 9 7
32 29 31 31 34 31 29 27 27 25 28 26 23 18 13 12 12 13 14 12 10 10 11 11 14 15 10 11 8 7 10 14 14 12 14 10 7 8 7 7 7 7 8
32 33 37 38 35 32 33 31 31 32 28 23 18 14 9 8 11 11 10 11 10 9 8 11 13 13 11 10 9 7 9 8 6 5 7 5 6 4 4 5 6 5 5
35 37 35 35 34 33 33 34 33 28 24 18 16 14 10 6 8 9 10 10 9 8 9 11 11 11 10 9 8 8 7 8 6 6 2 4 4 8 3 3 3 4 4
38 37 35 36 36 34 34 34 32 28 24 21 15 14 13 9 7 7 8 9 10 10 10 13 13 13 11 9 9 8 6 6 5 4 3 1 0 5 10 5 2 2 4
38 38 41 38 34 34 35 35 30 27 23 19 18 16 14 13 12 6 7 9 10 12 12 14 15 14 13 11 9 7 7 5 4 3 3 1 1 1 8 10 9 6 4
38 41 35 46 37 34 32 33 29 25 22 23 21 19 16 11 10 5 6 8 10 13 12 12 15 15 14 13 12 10 7 7 6 5 2 3 5 3 8 11 17 19 26
43 36 42 37 39 33 33 31 28 25 24 24 20 18 18 16 11 6 6 8 9 13 15 16 16 16 15 15 13 12 9 8 7 4 5 8 7 13 5 2 10 11 10
42 40 39 41 38 32 29 29 27 26 24 27 25 22 19 13 11 10 9 7 9 12 15 16 18 17 17 16 14 12 10 9 8 7 7 7 3 3 2 7 10 4 4
38 39 39 36 35 36 35 31 29 31 26 27 27 21 19 17 15 9 6 9 11 11 14 16 16 19 19 18 17 16 13 12 11 10 9 9 10 8 7 6 6 4 2
39 39 36 41 42 36 37 40 27 34 29 28 24 23 22 21 16 15 8 9 11 13 13 15 17 16 17 16 15 13 12 12 11 12 13 13 14 14 11 11 13 6 4
38 39 39 37 37 37 29 30 34 27 30 30 27 24 22 21 17 14 11 8 10 11 13 15 15 16 15 15 12 9 7 6 9 9 9 10 10 11 13 16 15 13 14
37 40 39 38 37 35 37 33 32 35 31 32 30 29 27 24 22 20 15 10 10 9 11 13 15 15 16 17 14 9 5 3 8 7 9 9 9 9 9 10 11 13 15
34 37 37 37 38 37 32 31 32 30 36 34 31 28 26 26 24 21 19 17 11 10 12 14 15 15 15 15 14 13 8 6 4 4 8 9 9 8 7 8 8 8 8
33 35 36 37 35 34 31 30 27 35 35 34 32 29 27 25 22 20 19 17 17 13 14 14 15 15 15 14 13 12 10 8 7 4 4 8 9 9 9 8 8 8 9
30 34 35 35 34 33 33 29 31 31 33 32 28 29 27 23 21 19 18 16 16 16 15 15 16 16 15 14 14 12 11 10 9 7 5 5 6 7 7 8 8 8 9
Wind_Direction
163 169 167 162 156 156 163 165 163 157 149 147 145 138 134 130 127 125 125 125 126 123 117 113 112 112 115 120 120 119 113 110 106 105 103 103 102 101 98 106 112 107 104
166 169 168 163 157 161 161 163 162 158 154 152 147 143 136 134 130 127 128 127 130 124 116 117 114 111 112 118 122 120 115 109 103 99 96 97 101 100 109 112 110 107 105
159 168 170 162 158 161 165 162 163 162 158 155 148 142 138 134 130 126 123 127 124 120 119 116 116 112 110 112 116 118 117 111 106 101 94 95 97 103 110 112 110 107 100
157 165 168 163 162 164 163 164 165 164 157 157 149 144 140 132 126 124 126 122 127 129 121 113 112 113 113 112 112 114 117 114 99 90 86 92 96 102 103 108 117 108 97
153 162 168 163 166 165 165 163 166 162 154 155 152 145 138 134 132 126 119 122 145 141 130 120 117 104 112 116 117 119 117 115 107 95 105 107 110 101 106 101 108 111 108
156 163 168 166 168 168 167 166 168 164 160 160 152 147 144 139 134 117 113 113 115 122 122 113 110 114 112 115 116 116 116 105 78 91 87 118 118 118 109 107 114 115 105
159 161 168 169 170 170 171 170 169 167 165 161 155 158 151 148 139 124 130 134 127 119 119 122 125 119 111 118 121 117 115 99 123 108 116 93 106 123 116 109 114 118 103
159 162 168 171 171 171 173 174 173 172 167 161 155 156 157 156 150 128 120 125 127 122 123 122 124 119 111 107 114 117 116 97 80 98 101 99 95 105 123 117 115 117 109
160 162 168 168 168 173 175 175 171 169 166 162 158 151 153 156 147 134 127 125 126 128 127 127 126 120 113 109 108 109 118 123 115 85 67 93 95 94 101 127 121 120 122
163 166 166 167 165 173 177 176 176 175 172 172 169 167 164 161 153 141 134 132 128 126 138 144 145 133 118 109 106 102 107 99 105 118 112 92 95 102 102 116 133 125 126
171 166 164 165 162 174 174 173 172 171 167 161 160 158 150 154 159 158 150 147 148 145 139 143 151 142 129 126 110 91 104 98 109 109 100 95 93 93 104 109 118 131 133
172 165 164 162 175 175 168 167 162 159 150 149 154 153 161 161 159 157 160 165 156 148 139 136 152 164 154 151 145 125 121 112 110 100 99 103 86 92 102 105 114 122 125
177 169 172 176 176 171 169 168 167 162 166 161 161 159 166 182 190 187 175 172 168 164 157 152 159 162 169 160 145 146 144 158 145 112 116 112 98 87 92 109 120 131 139
180 186 179 177 175 175 171 170 168 169 175 177 175 174 177 173 186 191 184 181 184 177 177 166 166 166 170 158 155 145 137 135 145 145 153 106 68 80 118 108 128 143 147
189 186 189 182 181 178 175 174 178 178 181 181 186 182 172 183 195 184 190 190 193 184 183 172 170 166 171 170 164 158 153 134 128 138 125 4 155 93 73 83 151 172 177
191 190 188 192 191 187 181 181 186 183 186 194 185 184 187 183 204 188 189 185 189 186 183 173 171 172 174 174 170 155 150 145 140 136 119 90 301 126 112 98 92 104 166
194 199 194 204 189 197 191 191 192 192 192 185 181 181 179 186 178 200 228 200 193 187 186 183 176 171 171 171 168 167 174 155 174 165 137 169 196 200 151 121 113 97 83
201 192 199 209 196 203 197 194 193 191 190 189 196 199 186 190 192 200 264 234 205 196 186 183 184 182 177 173 169 167 169 172 177 167 164 135 102 111 125 357 156 126 103
205 203 203 191 193 198 202 194 198 198 199 193 184 184 185 180 184 185 232 260 227 212 199 191 188 190 185 183 183 184 184 185 191 195 201 224 234 93 123 216 233 228 261
202 204 206 209 208 202 190 196 203 192 189 199 183 190 177 179 182 177 206 248 241 218 211 201 200 195 190 187 184 187 195 204 205 207 214 216 219 223 214 181 147 192 236
202 205 201 192 198 193 209 186 198 190 181 186 185 184 181 182 192 178 174 238 234 216 208 211 202 199 195 194 189 191 194 200 219 227 236 238 235 230 223 220 224 214 187
199 200 201 201 203 194 208 216 195 204 190 185 184 181 187 182 188 173 173 211 219 213 208 208 202 204 200 196 194 177 172 188 201 215 229 236 239 235 231 231 232 237 241
199 202 203 200 199 208 200 205 207 200 195 186 184 192 182 184 181 179 179 194 227 220 212 209 204 203 209 199 196 199 173 195 206 216 219 224 231 233 230 228 230 236 245
198 201 204 203 198 207 193 200 211 223 195 194 190 186 185 187 186 180 180 175 203 238 223 217 209 202 207 214 214 212 210 205 179 200 222 225 229 234 233 231 230 229 235
199 200 200 201 199 199 208 209 213 201 192 189 184 189 187 185 184 188 187 185 185 201 227 219 213 217 212 218 219 222 223 213 201 188 222 219 226 232 236 235 230 227 230
197 200 201 201 200 199 195 203 200 203 198 194 193 190 188 186 187 189 192 192 191 193 202 214 220 220 219 218 223 222 221 217 218 206 194 205 235 236 232 235 238 238 240